sat.trackr.live / text

‹ back to catalog

GOSAT-GW (IBUKI GW)

NORAD 64694 · 2025-141A

PAYLOAD ACTIVE UNKNOWN

§ Identity

Operator
Country
JPN
Launch date
2025-06-28
Launch site
TANSC
Launch vehicle
Mass (kg)
RCS (m²)

Purposes: earth_obs

External: N2YO · Heavens-Above · Gunter

§ Orbital elements

Epoch: 2026-05-25T03:28:32.017728Z

Period
98.12 min
Inclination
98.0567°
Eccentricity
0.0001434
Mean motion
14.67554148 rev/d
Perigee alt
667.9 km
Apogee alt
669.9 km
Semi-major
7,047.0 km
B*
2.1082e-4
RAAN
82.8372°
Arg perigee
84.0160°
Mean anomaly
276.1208°
Rev number
4,846

§ Raw data

GOSAT-GW (IBUKI GW)1 64694U 25141A   26145.14481502  .00001148  00000+0  21082-3 0  99942 64694  98.0567  82.8372 0001434  84.0160 276.1208 14.67554148 48460

JSON: /api/v1/satellites/64694 · /tle

For live sub-satellite position, see the globe view (requires WebGL).

§ Visibility from observer

Set your observer location to see the next 7 days of passes ≥ 10°. The values pass through the URL so the page stays shareable.

No JS? Fill the form by hand. The geolocation button needs JavaScript.